Location: �quirre
(50.4736°N, 2.2351°E)
Time: 16:38:14
(UTC+00:00)

ATLAS CENTAUR R/B - Pass Details

Date: 07 August 2020
Orbit: 476 x 670 km, 64.7° (Epoch: 17 September)

Event Time Altitude Azimuth Distance (km) Brightness Sun altitude
Rises 03:27:44 0° 169° (SSE) 2,776 4.6 -8.8°
Reaches altitude 10° 03:31:01 10° 142° (SE) 1,836 4.0 -8.4°
Maximum altitude 03:32:59 13° 113° (ESE) 1,613 4.1 -8.2°
Drops below altitude 10° 03:34:54 10° 84° (E) 1,787 4.9 -7.9°
Sets 03:38:01 0° 57° (ENE) 2,640 7.4 -7.5°
